Weather History for Blue Canyon, CA

Change the Weather History Date:

Monday, October 1, 2012

  Actual Average Record
Temperature  
Mean Temperature 76 °F -  
Max Temperature 82 °F 69 °F 87 °F (1980)
Min Temperature 69 °F 51 °F 29 °F (1971)
Cooling Degree Days 10    
Growing Degree Days 26 (Base 50)    
Moisture  
Dew Point 25 °F    
Average Humidity 16    
Maximum Humidity 23    
Minimum Humidity 10    
Precipitation  
Precipitation 0.00 in - - ()
Sea Level Pressure  
Sea Level Pressure 29.95 in    
Wind  
Wind Speed 5 mph (NE)    
Max Wind Speed 8 mph    
Max Gust Speed 18 mph    
Visibility 10 miles    
Events      
Averages and records for this station are not official NWS values.
T = Trace of Precipitation, MM = Missing Value Source: NWS Daily Summary

Daily Weather History Graph

Daily Weather History Graph

Search for Another Location

Airport:

Trip Planner

Search our weather history database for the weather conditions in past years. The results will help you decide how hot, cold, wet, or windy it might be!

Date:

Astronomy

Oct. 01, 2012 Rise Set
Actual Time 6:59 AM PDT 6:44 PM PDT
Civil Twilight 6:32 AM PDT 7:11 PM PDT
Nautical Twilight 6:01 AM PDT 7:42 PM PDT
Astronomical Twilight 5:30 AM PDT 8:13 PM PDT
Moon 7:25 PM PDT (10/1) 8:32 AM PDT (10/1)
Length of Visible Light 12h 38m
Length of Day
11h 45m
Full, 97% of the Moon is Illuminated
Oct 1
Full
Oct 8
Last Quarter
Oct 15
New
Oct 21
First Quarter
Oct 29
Full

Hourly Weather History & Observations

Time (PDT) Temp. Dew Point Humidity Pressure Visibility Wind Dir Wind Speed Gust Speed Precip Events Conditions
12:52 AM 71.1 °F 25.0 °F 18% 29.96 in 10.0 mi Variable 3.5 mph - N/A   Clear
1:52 AM 70.0 °F 24.1 °F 18% 29.98 in 10.0 mi ENE 3.5 mph - N/A   Clear
2:52 AM 69.1 °F 25.0 °F 19% 29.97 in 10.0 mi NE 6.9 mph - N/A   Clear
3:52 AM 69.1 °F 24.1 °F 18% 29.96 in 10.0 mi NE 8.1 mph 18.4 mph N/A   Clear
4:52 AM 70.0 °F 21.9 °F 16% 29.95 in 10.0 mi NE 6.9 mph - N/A   Clear
5:52 AM 70.0 °F 21.9 °F 16% 29.96 in 10.0 mi NE 5.8 mph - N/A   Clear
6:52 AM 69.1 °F 23.0 °F 18% 29.99 in 10.0 mi NE 5.8 mph - N/A   Clear
7:52 AM 71.1 °F 23.0 °F 16% 30.01 in 10.0 mi NE 3.5 mph - N/A   Clear
8:52 AM 75.0 °F 25.0 °F 16% 30.00 in 10.0 mi ENE 3.5 mph - N/A   Clear
9:52 AM 79.0 °F 19.9 °F 11% 29.99 in 10.0 mi SSE 3.5 mph - N/A   Clear
10:52 AM 79.0 °F 21.9 °F 12% 29.99 in 10.0 mi SSW 6.9 mph - N/A   Clear
11:52 AM 82.0 °F 21.0 °F 10% 29.97 in 10.0 mi Variable 5.8 mph - N/A   Clear
12:52 PM 82.0 °F 24.1 °F 12% 29.96 in 10.0 mi West 6.9 mph - N/A   Clear
1:52 PM 82.9 °F 26.1 °F 13% 29.94 in 10.0 mi Variable 5.8 mph - N/A   Clear
2:52 PM 82.0 °F 21.9 °F 11% 29.94 in 10.0 mi SSW 8.1 mph - N/A   Clear
3:52 PM 82.0 °F 25.0 °F 12% 29.93 in 10.0 mi Variable 3.5 mph - N/A   Clear
4:52 PM 81.0 °F 28.9 °F 15% 29.91 in 10.0 mi SW 8.1 mph - N/A   Clear
5:52 PM 79.0 °F 33.1 °F 19% 29.92 in 10.0 mi WSW 5.8 mph - N/A   Clear
6:52 PM 75.9 °F 35.1 °F 23% 29.94 in 10.0 mi Calm Calm - N/A   Clear
7:52 PM 75.0 °F 34.0 °F 22% 29.94 in 10.0 mi Calm Calm - N/A   Clear
8:52 PM 75.0 °F 27.0 °F 17% 29.93 in 10.0 mi NNE 3.5 mph - N/A   Clear
9:52 PM 73.9 °F 28.9 °F 19% 29.91 in 10.0 mi NE 3.5 mph - N/A   Clear
10:52 PM 73.0 °F 26.1 °F 17% 29.91 in 10.0 mi NE 3.5 mph - N/A   Clear
11:52 PM 73.0 °F 25.0 °F 17% 29.88 in 10.0 mi Calm Calm - N/A   Clear